Weather History for KBFM - March, 2013

Change the Weather History Date:

Sunday, March 31, 2013

  Actual Average Record
Temperature  
Mean Temperature 65 °F -  
Max Temperature 75 °F 70 °F 82 °F (2012)
Min Temperature 55 °F 52 °F 33 °F (2003)
Growing Degree Days 15 (Base 50)    
Moisture  
Dew Point 60 °F    
Average Humidity 94    
Maximum Humidity 100    
Minimum Humidity 66    
Precipitation  
Precipitation 0.19 in - - ()
Sea Level Pressure  
Sea Level Pressure 30.02 in    
Wind  
Wind Speed 2 mph (SSE)    
Max Wind Speed 16 mph    
Max Gust Speed 24 mph    
Visibility 5 miles    
Events Fog , Rain , Thunderstorm    
Averages and records for this station are not official NWS values.
T = Trace of Precipitation, MM = Missing Value Source: NWS Daily Summary

Daily Weather History Graph

Daily Weather History Graph

Search for Another Location

Airport or City:

Trip Planner

Search our weather history database for the weather conditions in past years. The results will help you decide how hot, cold, wet, or windy it might be!

Date:

Astronomy

Mar. 31, 2013 Rise Set
Actual Time 6:42 AM CDT 7:10 PM CDT
Civil Twilight 6:18 AM CDT 7:35 PM CDT
Nautical Twilight 5:49 AM CDT 8:03 PM CDT
Astronomical Twilight 5:20 AM CDT 8:32 PM CDT
Moon No Moon Rise 9:47 AM CDT (3/31)
Length of Visible Light 13h 17m
Length of Day
12h 28m
Waning Gibbous, 77% of the Moon is Illuminated
Mar 31
Waning Gibbous
Apr 2
Last Quarter
Apr 10
New
Apr 18
First Quarter
Apr 25
Full

Hourly Weather History & Observations

Time (CDT) Temp. Dew Point Humidity Pressure Visibility Wind Dir Wind Speed Gust Speed Precip Events Conditions
12:53 AM 59.0 °F 57.9 °F 96% 30.09 in 6.0 mi Calm Calm - N/A   Clear
1:53 AM 62.1 °F 60.1 °F 93% 30.06 in 10.0 mi South 3.5 mph - N/A   Partly Cloudy
2:28 AM 57.2 °F 57.2 °F 100% 30.06 in 1.8 mi Calm Calm - N/A   Scattered Clouds
2:38 AM 57.2 °F 57.2 °F 100% 30.06 in 3.0 mi NW 3.5 mph - N/A   Mostly Cloudy
2:48 AM 57.2 °F 57.2 °F 100% 30.06 in 1.5 mi NW 3.5 mph - N/A   Mostly Cloudy
2:51 AM 57.2 °F 57.2 °F 100% 30.06 in 0.8 mi Calm Calm - N/A   Mostly Cloudy
2:53 AM 57.0 °F 57.0 °F 100% 30.06 in 0.8 mi Calm Calm - N/A   Mostly Cloudy
3:15 AM 57.2 °F 57.2 °F 100% 30.05 in 2.0 mi Calm Calm - N/A   Mostly Cloudy
3:24 AM 57.2 °F 57.2 °F 100% 30.05 in 3.0 mi Calm Calm - N/A   Overcast
3:33 AM 57.2 °F 57.2 °F 100% 30.05 in 1.2 mi Calm Calm - N/A   Overcast
3:37 AM 57.2 °F 57.2 °F 100% 30.04 in 0.5 mi Calm Calm - N/A Fog Fog
3:44 AM 57.2 °F 57.2 °F 100% 30.04 in 0.5 mi Calm Calm - N/A Fog Fog
3:50 AM 57.2 °F 57.2 °F 100% 30.04 in 1.5 mi Calm Calm - N/A   Overcast
3:53 AM 57.0 °F 55.9 °F 96% 30.04 in 4.0 mi Calm Calm - N/A   Mostly Cloudy
4:53 AM 57.9 °F 57.9 °F 100% 30.03 in 2.5 mi Calm Calm - N/A   Partly Cloudy
5:02 AM 57.2 °F 57.2 °F 100% 30.02 in 1.5 mi South 3.5 mph - N/A   Partly Cloudy
5:08 AM 59.0 °F 57.2 °F 94% 30.02 in 3.0 mi Calm Calm - N/A   Partly Cloudy
5:53 AM 55.9 °F 55.0 °F 97% 30.02 in 4.0 mi Calm Calm - N/A   Clear
6:02 AM 55.4 °F 55.4 °F 100% 30.02 in 1.5 mi Calm Calm - N/A   Clear
6:10 AM 55.4 °F 55.4 °F 100% 30.03 in 0.5 mi Calm Calm - N/A Fog Fog
6:20 AM 55.4 °F 55.4 °F 100% 30.03 in 0.2 mi Calm Calm - N/A Fog Fog
6:32 AM 55.4 °F 55.4 °F 100% 30.03 in 0.5 mi Calm Calm - N/A Fog Fog
6:40 AM 55.4 °F 55.4 °F 100% 30.04 in 0.2 mi Calm Calm - N/A Fog Fog
6:51 AM 55.4 °F 55.4 °F 100% 30.04 in 1.0 mi Calm Calm - 0.01 in   Mostly Cloudy
6:53 AM 55.0 °F 54.0 °F 96% 30.04 in 1.0 mi Calm Calm - 0.01 in   Mostly Cloudy
6:58 AM 55.4 °F 55.4 °F 100% 30.04 in 1.0 mi Calm Calm - N/A   Mostly Cloudy
7:39 AM 60.8 °F 60.8 °F 100% 30.04 in 1.0 mi Calm Calm - N/A   Mist
7:53 AM 62.1 °F 61.0 °F 96% 30.05 in 3.0 mi Calm Calm - N/A   Mostly Cloudy
8:06 AM 60.8 °F 60.8 °F 100% 30.05 in 2.0 mi Calm Calm - N/A   Overcast
8:13 AM 62.6 °F 62.6 °F 100% 30.05 in 1.0 mi Calm Calm - N/A Fog Shallow Fog
8:33 AM 62.6 °F 62.6 °F 100% 30.06 in 2.0 mi Calm Calm - N/A   Overcast
8:53 AM 63.0 °F 63.0 °F 100% 30.05 in 2.0 mi East 3.5 mph - N/A   Overcast
9:00 AM 62.6 °F 62.6 °F 100% 30.05 in 4.0 mi East 3.5 mph - N/A   Overcast
9:53 AM 66.0 °F 64.0 °F 93% 30.05 in 8.0 mi ESE 6.9 mph - N/A   Overcast
10:18 AM 66.2 °F 62.6 °F 88% 30.04 in 10.0 mi ESE 8.1 mph - N/A   Overcast
10:53 AM 66.9 °F 64.0 °F 90% 30.04 in 10.0 mi ESE 8.1 mph - N/A   Overcast
11:53 AM 69.1 °F 64.0 °F 84% 30.03 in 10.0 mi SE 10.4 mph - N/A   Mostly Cloudy
12:00 PM 69.8 °F 64.4 °F 83% 30.03 in 10.0 mi SSE 9.2 mph - N/A   Mostly Cloudy
12:53 PM 68.0 °F 64.0 °F 87% 30.01 in 10.0 mi SE 6.9 mph - N/A   Mostly Cloudy
1:53 PM 75.0 °F 63.0 °F 66% 29.98 in 10.0 mi SSE 16.1 mph 24.2 mph N/A   Mostly Cloudy
2:53 PM 73.9 °F 64.0 °F 71% 29.97 in 10.0 mi SSE 11.5 mph 21.9 mph N/A   Partly Cloudy
3:53 PM 72.0 °F 63.0 °F 73% 29.96 in 10.0 mi South 9.2 mph - N/A   Partly Cloudy
4:53 PM 70.0 °F 63.0 °F 78% 29.93 in 10.0 mi South 9.2 mph - N/A   Partly Cloudy
5:53 PM 68.0 °F 63.0 °F 84% 29.94 in 10.0 mi South 6.9 mph - N/A   Clear
6:53 PM 69.1 °F 62.1 °F 78% 29.96 in 10.0 mi South 10.4 mph - 0.00 in Rain Light Rain
7:14 PM 69.8 °F 62.6 °F 78% 29.96 in 10.0 mi SSW 8.1 mph - 0.00 in Rain , Thunderstorm Light Rain
7:53 PM 64.0 °F 63.0 °F 96% 29.99 in 5.0 mi Variable 3.5 mph - 0.12 in Rain , Thunderstorm Rain
8:03 PM 62.6 °F 62.6 °F 100% 29.98 in 4.0 mi Calm Calm - 0.03 in Rain Rain
8:53 PM 63.0 °F 62.1 °F 97% 29.93 in 10.0 mi South 5.8 mph - 0.06 in Rain Light Rain
9:26 PM 62.6 °F 60.8 °F 94% 29.93 in 10.0 mi South 5.8 mph - N/A   Overcast
9:53 PM 63.0 °F 61.0 °F 93% 29.94 in 10.0 mi SSE 6.9 mph - 0.00 in   Overcast
10:53 PM 63.0 °F 61.0 °F 93% 29.94 in 10.0 mi South 3.5 mph - N/A   Scattered Clouds
11:53 PM 61.0 °F 61.0 °F 100% 29.94 in 10.0 mi West 3.5 mph - N/A   Scattered Clouds